User: anonymous   Login
Location: Mactaquac Provincial Park
(45.9573°N, 66.8897°W)
Time: 09:58:42
(UTC-04:00)
Language:

CENTAUR R/B - Orbit

View from above orbital plane
View from above orbital plane
View from above satellite
View from above satellite

Ground track
Ground track

The orbit data is extracted from the following two-line orbital elements,

1 26906U 01040B   17342.79121855 0.00000000  00000-0  00000-0 0    06
2 26906  63.4580 245.7469 0364000 341.3205  18.6794 13.44020055    08
Epoch (UTC): 08 December 2017 18:59:21
Eccentricity: 0.0364000
inclination: 63.4580°
perigee height: 822 km
apogee height: 1366 km
right ascension of ascending node: 245.7469°
argument of perigee: 341.3205°
revolutions per day: 13.44020055
mean anomaly at epoch: 18.6794°
orbit number at epoch: 0

The dashed part of the orbit path shows where the satellite is in the earth's shadow,  

DLR